COSMOS 1275 DEB, 12748

Orbit data source: Space-Track

COSMOS 1275 DEB, 12748 is space debris in LEO originally from a launch on Thu, 04 Jun 1981 UTC launched from the Plesetsk Missile And Space Complex (PKMTR). Debris objects in space refer to the collection of defunct objects orbiting the Earth. Examples of debris include non-operational satellites, rocket bodies, and fragments generated from explosions, collisions, or faulty payload assembly.

Loading next visibility...
Identifier
12748, 1981-053CR
Orbit
LEO
Country
Flag of CISCIS
Related business
Manufacturer
Unknown
Mission
Spacecraft
Bus & Motor
Unknown
Mass
Unknown
Launch date (UTC)
1981-06-04 (45 years ago)
Launch vehicle
Unknown
Launch site
Plesetsk Missile And Space Complex (PKMTR)
Object type
Payload
Rocket body
Debris
Shape & HBR
Unknown shape, 0.2 m
Radar Cross Section
Small (<0.1 m²)

Expand to show TLE details & history
Last TLE update: 20 hours ago

TLE from 20 hours ago
0 COSMOS 1275 DEB
1 12748U 81053CR  25344.74321953  .00000435  00000-0  43741-3 0  9995
2 12748  82.9864 153.5951 0044849 120.0185 267.5316 13.74846558220483
Epoch: 2025-12-10T17:50Z
TLE epoch observation values (Epoch: 2025-12-10T17:50:14.167Z)
Latitude
26.85446°
Longitude
169.87969°
Altitude
987.063 km
Speed
7.36 km/s
True Right ascension
10h 28m 35s
True Declination
26° 43' 14"
Sunlit
Object was in daylight at epoch
Visualization orbit readout
Latitude
Unknown
Longitude
Unknown
Altitude
Unknown
Speed
Unknown
Apparent Right ascension
Unknown
Apparent Declination
Unknown
Sunlit
N/A
Visualization observer readout
Local Sidereal Time
12:36:09
Azimuth
Unknown
Elevation
Unknown
Doppler factor
Unknown
Orbital elements
Apogee altitude
1,012.367 km
Perigee altitude
946.372 km
Semi-major axis
7,357.507 km
Eccentricity
0.00448
Inclination
82.9864°
RAAN
153.5951°
Arg. of periapsis
120.0185°
True anomaly
267.01828°
Mean anomaly
267.5316°
Eccentric anomaly
267.27492°
Mean motion
3.43912 °/min
Orbital period
104.68 mins
BSTAR
0.00043741
Loading maneuver chart data...
Computing Atmospheric mass density...

Documentation

Showing up to 5 results
|